Location: Strawberry
(45.6646°N, 111.9596°W)
Time: 17:46:17
(UTC+00:00)

NUDT-PHONESAT - Visible Passes

Search period start: 30 November 2022 00:00
Search period end: 10 December 2022 00:00
Orbit: 417 x 430 km, 97.4° (Epoch: 30 November)

Date Brightness Start Highest point End Pass type
(mag) Time Alt. Az. Time Alt. Az. Time Alt. Az.
01 Dec ? 14:00:01 10° NE 14:02:07 16° E 14:04:12 10° SE visible
03 Dec ? 14:05:54 10° NE 14:08:17 19° E 14:10:38 10° SE visible
05 Dec ? 14:11:30 10° NE 14:14:05 22° E 14:16:40 10° SSE visible
07 Dec ? 14:16:48 10° NE 14:19:33 25° E 14:22:17 10° SSE visible
09 Dec ? 14:21:47 10° NE 14:24:39 29° E 14:27:31 10° SSE visible
